[Iaude] MPEC F57: 2024 FS1 [a=1.06,e=0.29,i=18.3,H=23.7]
    mpec at cfa.harvard.edu 
    mpec at cfa.harvard.edu
       
    Thu Mar 21 05:08:03 EDT 2024
    
    
  
M.P.E.C. 2024-F57                                Issued 2024 March 21, 09:06 UT
     The Minor Planet Electronic Circulars contain information on unusual
         minor planets, routine data on comets and natural satellites,
         and occasional editorial announcements.  They are published
    on behalf of Division F of the International Astronomical Union by the
          Minor Planet Center, Smithsonian Astrophysical Observatory,
                          Cambridge, MA 02138, U.S.A.
			  
             Prepared using the Tamkin Foundation Computer Network
                              MPC at CFA.HARVARD.EDU
            URL https://www.minorplanetcenter.net/    ISSN 1523-6714
                                    2024 FS1                                    
Observations:
     K24F01S*2C2024 03 18.21553411 58 18.708-25 20 36.20         20.5 GVEF057W57
     K24F01S 2C2024 03 18.22795211 58 11.901-25 22 23.85         20.3 GVEF057W57
     K24F01S 2C2024 03 18.23539711 58 07.732-25 23 30.08         21.1 GVEF057W57
     K24F01S 0C2024 03 18.65790511 54 19.658-26 25 28.42         20.2 GVEF057Q63
     K24F01S 0C2024 03 18.66259511 54 16.965-26 26 09.57         20.2 GVEF057Q63
     K24F01S 0C2024 03 18.66648911 54 14.730-26 26 43.93         20.2 GVEF057Q63
     K24F01S 0C2024 03 18.67059211 54 12.360-26 27 20.10         20.1 GVEF057Q63
     K24F01S 0C2024 03 18.67400511 54 10.401-26 27 49.96         20.1 GVEF057Q63
     K24F01S .C2024 03 18.68749611 54 02.644-26 29 48.49         20.1 GVEF057E10
     K24F01S .C2024 03 18.68777711 54 02.456-26 29 51.36         19.8 GVEF057E10
     K24F01S 0C2024 03 18.92480411 51 53.689-27 05 10.18         20.5 GVEF057K91
     K24F01S 0C2024 03 18.92815311 51 51.704-27 05 40.29         20.5 GVEF057K91
     K24F01S 0C2024 03 18.93152111 51 49.706-27 06 10.59         20.3 GVEF057K91
     K24F01S 0C2024 03 18.93485011 51 47.729-27 06 40.41         20.2 GVEF057K91
     K24F01S 0C2024 03 18.94608111 51 41.061-27 08 21.23         20.3 GVEF057K92
     K24F01S 0C2024 03 18.94939111 51 39.090-27 08 50.95         20.2 GVEF057K92
     K24F01S 0C2024 03 18.95272611 51 37.110-27 09 20.86         20.3 GVEF057K92
     K24F01S 0C2024 03 18.95616311 51 35.073-27 09 51.61         20.3 GVEF057K92
     K24F01S |C2024 03 19.23474011 48 54.550-27 51 44.40         20.0 GVEF057807
     K24F01S |C2024 03 19.24144011 48 50.450-27 52 44.60         20.0 GVEF057807
     K24F01S |C2024 03 19.24546011 48 48.000-27 53 20.90         20.2 GVEF057807
     K24F01S KC2024 03 21.00176411 30 10.290-32 24 00.65         20.1 GVEF057K93
     K24F01S KC2024 03 21.00766211 30 06.024-32 24 55.54         20.2 GVEF057K93
Observer details:
807 Cerro Tololo Observatory, La Serena.  Observers T. Linder, R. Holmes.
    0.61-m f/6.8 Ritchey-Chretien + CCD.
E10 Siding Spring-Faulkes Telescope South.  Observers T. Santana-Ros, M.
    Micheli, F. Ocana, L. Conversi.  Measurers F. Ocana, M. Micheli.
    2.0-m f/10 reflector + CCD.
K91 Sutherland-LCO A.  Observers T. Santana-Ros, M. Micheli, F. Ocana, M.
    Devogele, L. Conversi.  Measurer M. Micheli.  1.0-m reflector + CCD.
K92 Sutherland-LCO B.  Observers T. Santana-Ros, M. Micheli, F. Ocana, M.
    Devogele, L. Conversi.  Measurer M. Micheli.  1.0-m reflector + CCD.
K93 Sutherland-LCO C.  Observers T. Santana-Ros, F. Ocana, M. Micheli, L.
    Conversi.  Measurers F. Ocana, M. Micheli.  1.0-m reflector + CCD.
Q63 Siding Spring-LCO A.  Observers T. Santana-Ros, M. Micheli, F. Ocana, M.
    Devogele, L. Conversi.  Measurer M. Micheli.  1.0-m reflector + CCD.
W57 ESA TBT La Silla Observatory.  Observers R. Kresken, F. Ocana, M.
    Micheli, D. Fohring, M. Devogele, L. Conversi, R. Moissl, L. Faggioli, M.
    Fenucci, F. Gianotto, C. Drury, L. Gisolfi, J. L. Cano, D. Oliviero, A.
    Porru, R. Rudawska, G. Di Girolamo, E. Doelling.  Measurers R. Kresken, M.
    Micheli, F. Ocana, D. Fohring.  0.56-m f/2.52 astrograph prime-focus
    corrector + 4K CCD.
Orbital elements:
2024 FS1                                                 Earth MOID = 0.1086 AU
Epoch 2024 Mar. 31.0 TT = JDT 2460400.5                 MPC                     
M 290.45052              (2000.0)            P               Q                  
n   0.89715545     Peri.  302.49501     +0.41102675     +0.91040975             
a   1.0646926      Node   351.37411     -0.69525116     +0.27968994             
e   0.2949619      Incl.   18.27150     -0.58964637     +0.30484034             
P   1.10           H   23.76          G   0.15           U   8                  
Residuals in seconds of arc
240318 W57  0.1-  0.6+    240318 E10  0.0   0.1+    240318 K92  0.1-  0.1-
240318 W57  0.9+  1.2+    240318 E10  0.3-  0.3-    240318 K92  0.0   0.0
240318 W57  0.4+  0.2-    240318 K91  0.0   0.0     240319 807  0.0   0.0
240318 Q63  0.1-  0.2-    240318 K91  0.0   0.0     240319 807  0.1-  0.2+
240318 Q63  0.0   0.0     240318 K91  0.0   0.0     240319 807  0.0   0.0
240318 Q63  0.1+  0.1-    240318 K91  0.0   0.0     240321 K93  0.1+  0.1+
240318 Q63  0.0   0.2-    240318 K92  0.0   0.0     240321 K93  0.1-  0.1-
240318 Q63  0.0   0.0     240318 K92  0.1-  0.0
Ephemeris:
2024 FS1                 a,e,i = 1.06, 0.29, 18                  q = 0.7506
Date    TT    R. A. (2000) Decl.     Delta      r    Elong.  Phase     V
2024 02 20    13 18 51.4 +06 59 16   0.3098  1.2220   133.3    36.1    23.1
...
2024 03 06    13 00 18.5 -04 02 44   0.1915  1.1620   150.1    25.2    21.7
...
2024 03 14    12 28 26.0 -16 06 15   0.1420  1.1266   157.3    19.9    20.8
...
2024 03 20    11 41 13.9 -29 48 20   0.1173  1.0987   149.7    27.2    20.5
2024 03 21    11 30 14.4 -32 23 40   0.1146  1.0940   147.0    29.8    20.5
2024 03 22    11 18 07.2 -35 00 33   0.1124  1.0892   143.9    32.7    20.6
...
2024 03 28    09 38 48.4 -48 52 15   0.1099  1.0600   121.7    53.2    21.0
...
2024 04 05    06 56 20.3 -54 10 20   0.1307  1.0199    94.9    77.8    22.1
...
2024 04 20    04 26 59.6 -45 16 32   0.2025  0.9429    66.7   102.0    23.9
A. U. Tomatic                (C) Copyright 2024 MPC           M.P.E.C. 2024-F57
    
    
More information about the Iaude
mailing list